GW4836 Weather Reports


time (UTC)temp
F
wind
direction
speed
knots
gust
knots
rain 1hr
in
rain 24hr
in
rain mn
in
humidity
%
barometer
mb
20260906231514 64 329 4.3 7.0 0.00 0.07 0.01 73 1016.0
20260906230013 63 323 6.1 10.4 0.00 0.07 0.01 73 1016.3
20260906224513 64 23 3.5 7.8 0.00 0.07 0.01 75 1016.3
20260906223012 63 49 3.5 7.8 0.00 0.07 0.01 74 1016.5
20260906221510 63 44 4.3 10.4 0.00 0.07 0.01 75 1016.5
20260906220016 63 29 4.3 8.7 0.00 0.07 0.01 75 1016.3
20260906214510 62 53 5.2 10.4 0.00 0.07 0.01 75 1016.4
20260906213010 63 51 7.0 10.4 0.00 0.07 0.01 74 1016.4
20260906211508 63 19 5.2 10.4 0.00 0.07 0.01 74 1016.4
20260906210008 63 59 7.0 12.2 0.00 0.07 0.01 73 1016.4
20260906204507 63 22 7.0 12.2 0.00 0.07 0.01 73 1016.4
20260906203006 63 23 7.0 13.9 0.00 0.07 0.01 73 1016.4
20260906201505 63 50 8.7 13.0 0.00 0.07 0.01 73 1016.4
20260906200006 63 32 8.7 13.9 0.00 0.07 0.01 73 1016.5
20260906194504 63 5 8.7 13.0 0.00 0.07 0.01 72 1016.6
20260906193004 63 38 8.7 15.6 0.00 0.07 0.01 71 1016.5
20260906191503 63 26 10.4 15.6 0.00 0.07 0.01 70 1016.5
20260906190002 64 20 10.4 18.2 0.00 0.07 0.01 68 1016.4
20260906184625 63 20 13.0 18.2 0.00 0.07 0.01 69 1016.5
20260906183058 62 45 12.2 19.1 0.00 0.07 0.01 69 1016.4
20260906181554 61 35 12.2 17.4 0.00 0.07 0.01 74 1016.7
20260906180050 60 14 7.0 13.9 0.00 0.07 0.01 79 1017.1
20260906174548 57 57 6.1 10.4 0.00 0.07 0.01 81 1017.2
20260906173044 58 15 4.3 11.3 0.00 0.07 0.01 81 1018.2
20260906171546 57 331 7.8 12.2 0.00 0.07 0.01 80 1018.2
20260906170042 57 360 7.0 11.3 0.00 0.07 0.01 81 1018.1
20260906164542 57 340 7.0 10.4 0.00 0.07 0.01 83 1018.2
20260906163041 58 36 6.1 9.6 0.01 0.07 0.01 85 1018.3
20260906161540 58 49 3.5 7.8 0.01 0.07 0.01 88 1018.0
20260906160039 57 59 1.7 4.3 0.01 0.07 0.01 88 1018.3
20260906154538 56 36 0.9 5.2 0.01 0.07 0.01 87 1018.6
20260906153038 55 317 3.5 7.8 0.00 0.06 0.00 85 1018.9
20260906151547 55 294 7.8 13.0 0.00 0.06 0.00 85 1018.9
20260906150037 55 323 7.0 13.9 0.00 0.06 0.00 87 1018.7
20260906144536 57 292 11.3 18.2 0.00 0.06 0.00 83 1019.3
20260906143035 58 46 4.3 10.4 0.00 0.06 0.00 86 1018.7
20260906141532 57 42 7.0 12.2 0.00 0.06 0.00 86 1018.4
20260906140031 57 355 5.2 10.4 0.00 0.10 0.00 86 1018.8
20260906134530 57 40 9.6 14.8 0.00 0.10 0.00 86 1018.3
20260906133029 56 42 9.6 13.9 0.00 0.10 0.00 87 1018.2
20260906131529 56 36 6.1 13.0 0.00 0.10 0.00 87 1018.4
20260906130027 56 30 8.7 13.9 0.00 0.10 0.00 88 1018.4
20260906124535 56 57 9.6 13.9 0.00 0.10 0.00 88 1018.6
20260906123034 56 63 8.7 15.6 0.00 0.10 0.00 88 1018.4
20260906121524 55 27 9.6 15.6 0.00 0.10 0.00 88 1018.5
20260906120023 55 14 8.7 13.9 0.00 0.10 0.00 88 1018.7
20260906114522 55 31 8.7 13.0 0.00 0.10 0.00 88 1018.8
20260906113021 55 43 7.8 15.6 0.00 0.10 0.00 87 1018.6
20260906111519 55 30 9.6 14.8 0.00 0.10 0.00 86 1018.5
20260906110022 56 25 10.4 18.2 0.00 0.10 0.00 86 1018.5
20260906104520 55 37 10.4 16.5 0.00 0.10 0.00 86 1018.6
20260906103038 55 30 10.4 16.5 0.00 0.10 0.00 86 1018.7
20260906101516 55 34 9.6 16.5 0.00 0.10 0.00 86 1019.0
20260906100024 55 28 10.4 18.2 0.00 0.10 0.00 85 1018.8
20260906094513 55 33 11.3 17.4 0.00 0.10 0.00 87 1018.8
20260906093012 55 327 13.0 21.7 0.00 0.10 0.00 86 1018.9
20260906091509 56 331 13.9 19.1 0.00 0.10 0.00 85 1019.0
20260906090008 56 315 11.3 14.8 0.00 0.10 0.00 86 1019.7
20260906084507 55 336 11.3 19.1 0.00 0.10 0.00 86 1019.3
20260906083005 56 33 13.9 19.1 0.00 0.10 0.00 85 1019.2
20260906081503 56 338 13.0 20.0 0.00 0.10 0.00 85 1019.3
20260906074558 56 22 12.2 20.0 0.00 0.10 0.00 84 1019.4
20260906073058 56 30 13.0 20.9 0.00 0.10 0.00 83 1019.4
20260906071553 57 24 13.0 18.2 0.00 0.10 0.00 83 1019.4
20260906070051 57 351 12.2 19.1 0.00 0.10 0.00 82 1019.9
20260906064550 57 11 11.3 19.1 0.00 0.10 0.00 83 1020.0
20260906063048 57 30 11.3 20.0 0.00 0.10 0.00 83 1020.0
20260906061545 57 37 13.0 20.9 0.00 0.10 0.00 83 1020.1
20260906060043 57 19 13.9 20.0 0.00 0.10 0.10 84 1020.1
20260906054542 56 21 13.0 19.1 0.01 0.10 0.10 85 1020.2
20260906053042 56 35 13.9 20.0 0.01 0.10 0.10 85 1019.9
20260906051541 55 23 12.2 17.4 0.01 0.10 0.10 85 1020.1
20260906050045 56 13 13.0 19.1 0.01 0.10 0.10 82 1019.8
20260906044543 57 327 13.0 23.5 0.00 0.09 0.09 81 1020.8
20260906043041 56 347 15.6 24.3 0.01 0.09 0.09 84 1019.6
20260906041540 56 13 14.8 24.3 0.05 0.09 0.09 85 1019.2
20260906040039 55 30 14.8 22.6 0.05 0.09 0.09 87 1019.4
20260906034539 56 9 16.5 21.7 0.05 0.09 0.09 85 1019.8
20260906033039 58 11 13.9 20.9 0.03 0.07 0.07 77 1020.0
20260906031538 60 35 15.6 23.5 0.00 0.04 0.04 69 1019.9
20260906030036 59 24 14.8 23.5 0.00 0.04 0.04 68 1018.7
20260906024539 59 38 16.5 23.5 0.00 0.04 0.04 67 1018.5
20260906023042 60 23 16.5 23.5 0.00 0.04 0.04 66 1018.3
20260906021541 60 29 13.9 23.5 0.00 0.04 0.04 66 1018.3
20260906020032 61 27 15.6 22.6 0.00 0.04 0.04 65 1018.4
20260906014537 62 30 12.2 18.2 0.00 0.04 0.04 63 1018.4
20260906013040 63 28 13.0 18.2 0.00 0.04 0.04 61 1018.3
20260906011533 64 40 9.6 14.8 0.00 0.04 0.04 59 1018.5
20260906010029 65 29 10.4 14.8 0.00 0.04 0.04 57 1018.4
20260906004528 66 16 10.4 18.2 0.00 0.04 0.04 54 1018.6
20260906003027 68 31 11.3 17.4 0.00 0.04 0.04 53 1018.6
20260906001525 69 31 12.2 17.4 0.00 0.04 0.04 52 1018.5
20260906000025 70 35 12.2 19.1 0.00 0.04 0.04 51 1018.7
20260905234525 70 27 11.3 16.5 0.00 0.04 0.04 49 1018.9
20260905233024 71 30 6.1 13.0 0.00 0.04 0.04 47 1018.7